Weather History for Willimantic, CT

Change the Weather History Date:

Monday, November 19, 2012

  Actual Average Record
Temperature  
Mean Temperature 37 °F -  
Max Temperature 50 °F 51 °F 72 °F (1963)
Min Temperature 24 °F 28 °F 17 °F (1952)
Degree Days  
Heating Degree Days 28    
Moisture  
Dew Point 28 °F    
Average Humidity 73    
Maximum Humidity 89    
Minimum Humidity 52    
Precipitation  
Precipitation 0.00 in - - ()
Sea Level Pressure  
Sea Level Pressure 30.45 in    
Wind  
Wind Speed 2 mph (NE)    
Max Wind Speed 9 mph    
Max Gust Speed -    
Visibility 10 miles    
Events      
Averages and records for this station are not official NWS values.
T = Trace of Precipitation, MM = Missing Value Source: NWS Daily Summary

Daily Weather History Graph

Daily Weather History Graph

Search for Another Location

Airport:

Trip Planner

Search our weather history database for the weather conditions in past years. The results will help you decide how hot, cold, wet, or windy it might be!

Date:

Astronomy

Nov. 19, 2012 Rise Set
Actual Time 6:43 AM EST 4:24 PM EST
Civil Twilight 6:13 AM EST 4:54 PM EST
Nautical Twilight 5:39 AM EST 5:28 PM EST
Astronomical Twilight 5:06 AM EST 6:01 PM EST
Moon 11:42 AM EST (11/19) 10:51 PM EST (11/19)
Length of Visible Light 10h 41m
Length of Day
9h 41m
Waxing Crescent, 40% of the Moon is Illuminated
Nov 19
Waxing Crescent
Nov 20
First Quarter
Nov 28
Full
Dec 6
Last Quarter
Dec 13
New

Hourly Weather History & Observations

Time (EST) Temp. Windchill Dew Point Humidity Pressure Visibility Wind Dir Wind Speed Gust Speed Precip Events Conditions
12:52 AM 28.0 °F 24.2 °F 24.1 °F 85% 30.62 in 10.0 mi ENE 3.5 mph - N/A   Clear
1:52 AM 28.0 °F 24.2 °F 24.1 °F 85% 30.60 in 10.0 mi NE 3.5 mph - N/A   Clear
2:52 AM 26.1 °F 20.5 °F 21.9 °F 84% 30.58 in 10.0 mi NNE 4.6 mph - N/A   Clear
3:52 AM 28.0 °F - 25.0 °F 88% 30.56 in 10.0 mi Calm Calm - N/A   Clear
4:52 AM 27.0 °F - 21.9 °F 81% 30.55 in 10.0 mi Calm Calm - N/A   Clear
5:52 AM 26.1 °F - 21.9 °F 84% 30.54 in 10.0 mi Calm Calm - N/A   Clear
6:52 AM 24.1 °F - 19.9 °F 84% 30.54 in 10.0 mi Calm Calm - N/A   Clear
7:52 AM 26.1 °F - 21.0 °F 81% 30.54 in 9.0 mi Calm Calm - N/A   Clear
8:40 AM 30.2 °F - 24.8 °F 80% 30.52 in 9.0 mi Calm Calm - N/A   Mostly Cloudy
8:52 AM 32.0 °F - 27.0 °F 82% 30.52 in 10.0 mi Calm Calm - N/A   Overcast
9:32 AM 39.2 °F - 28.4 °F 65% 30.50 in 10.0 mi Calm Calm - N/A   Scattered Clouds
9:52 AM 41.0 °F - 30.0 °F 65% 30.51 in 10.0 mi Calm Calm - N/A   Partly Cloudy
10:07 AM 42.8 °F - 30.2 °F 61% 30.49 in 10.0 mi Calm Calm - N/A   Mostly Cloudy
10:52 AM 46.0 °F 41.9 °F 32.0 °F 58% 30.47 in 10.0 mi NE 8.1 mph - N/A   Scattered Clouds
11:44 AM 48.2 °F - 33.8 °F 58% 30.43 in 10.0 mi NE 9.2 mph - N/A   Mostly Cloudy
11:52 AM 48.0 °F - 33.1 °F 56% 30.44 in 10.0 mi ENE 6.9 mph - N/A   Mostly Cloudy
12:49 PM 48.2 °F - 33.8 °F 58% 30.40 in 10.0 mi East 5.8 mph - N/A   Scattered Clouds
12:52 PM 48.9 °F - 33.1 °F 54% 30.41 in 10.0 mi East 3.5 mph - N/A   Partly Cloudy
1:52 PM 50.0 °F - 33.1 °F 52% 30.40 in 10.0 mi ENE 3.5 mph - N/A   Clear
2:52 PM 50.0 °F - 33.1 °F 52% 30.38 in 10.0 mi NE 5.8 mph - N/A   Clear
3:52 PM 48.0 °F - 33.1 °F 56% 30.37 in 10.0 mi NE 6.9 mph - N/A   Clear
4:52 PM 44.1 °F - 32.0 °F 63% 30.36 in 10.0 mi Calm Calm - N/A   Clear
5:52 PM 37.9 °F - 30.9 °F 76% 30.36 in 10.0 mi Calm Calm - N/A   Clear
6:52 PM 34.0 °F - 28.9 °F 82% 30.36 in 10.0 mi Calm Calm - N/A   Clear
7:52 PM 33.1 °F - 28.0 °F 82% 30.34 in 10.0 mi Calm Calm - N/A   Clear
8:52 PM 30.9 °F 27.5 °F 27.0 °F 85% 30.32 in 10.0 mi NNE 3.5 mph - N/A   Clear
9:52 PM 28.9 °F 25.2 °F 26.1 °F 89% 30.31 in 9.0 mi NNE 3.5 mph - N/A   Clear
10:52 PM 28.0 °F - 24.1 °F 85% 30.29 in 9.0 mi Calm Calm - N/A   Clear
11:52 PM 28.9 °F - 25.0 °F 85% 30.28 in 8.0 mi Calm Calm - N/A   Clear